This is the latest recevied weather packets stored in our database for station/object KJ4EWA. If no packets are shown the sender has not sent any weather packets the latest 10 day(s).
| Time | Temp. | Humidity | Pressure | Rain* | Wind** | Luminosity | Snow |
|---|---|---|---|---|---|---|---|
| 1777858172 | 14.44° C | 85% | 1021.1 hPa | 0 mm | - | 0 W/m² | - |
| 1777857871 | 15° C | 83% | 1021.3 hPa | 0 mm | - | 0 W/m² | - |
| 1777857568 | 15° C | 81% | 1021.3 hPa | 0 mm | - | 0 W/m² | - |
| 1777857265 | 15° C | 84% | 1021 hPa | 0 mm | - | 0 W/m² | - |
| 1777856960 | 15.56° C | 83% | 1021.2 hPa | 0 mm | - | 0 W/m² | - |
| 1777856656 | 15.56° C | 83% | 1020.9 hPa | 0 mm | - | 0 W/m² | - |
| 1777856353 | 16.11° C | 82% | 1020.8 hPa | 0 mm | - | 0 W/m² | - |
| 1777856050 | 16.67° C | 81% | 1020.8 hPa | 0 mm | - | 0 W/m² | - |
| 1777855748 | 16.67° C | 79% | 1020.9 hPa | 0 mm | - | 0 W/m² | - |
| 1777855445 | 16.67° C | 76% | 1020.7 hPa | 0 mm | - | 0 W/m² | - |
| 1777855141 | 17.22° C | 77% | 1020.8 hPa | 0 mm | - | 0 W/m² | - |
| 1777854838 | 17.78° C | 77% | 1020.7 hPa | 0 mm | - | 0 W/m² | - |
| 1777854535 | 18.33° C | 75% | 1020.4 hPa | 0 mm | - | 0 W/m² | - |
| 1777854231 | 18.89° C | 74% | 1020.6 hPa | 0 mm | - | 0 W/m² | - |
| 1777853930 | 18.89° C | 72% | 1020.4 hPa | 0 mm | - | 2 W/m² | - |
| 1777853626 | 19.44° C | 71% | 1020.5 hPa | 0 mm | - | 6 W/m² | - |
| 1777853318 | 20° C | 67% | 1020.5 hPa | 0 mm | - | 9 W/m² | - |
| 1777853015 | 20.56° C | 66% | 1020.4 hPa | 0 mm | - | 12 W/m² | - |
| 1777852712 | 21.11° C | 63% | 1020.4 hPa | 0 mm | - | 15 W/m² | - |
| 1777852410 | 21.11° C | 60% | 1020.6 hPa | 0 mm | - | 17 W/m² | - |
| 1777852107 | 21.67° C | 60% | 1020.4 hPa | 0 mm | - | 20 W/m² | - |
| 1777851804 | 22.22° C | 57% | 1020.3 hPa | 0 mm | - | 21 W/m² | - |
| 1777851502 | 22.78° C | 54% | 1020.4 hPa | 0 mm | - | 23 W/m² | - |
| 1777851198 | 23.33° C | 48% | 1020.5 hPa | 0 mm | - | 26 W/m² | - |
| 1777850895 | 23.33° C | 52% | 1020.4 hPa | 0 mm | - | 28 W/m² | - |
* Rain latest hour (hover to see other rain measurements)
** Current wind speed in m/s (hover to see current wind gust speed)